Regional Weather Roundup
Issued by NWS Jackson, KY

Home | Current Version | Previous Version | Text Only | Print | Product List | Glossary Off
Versions: 1 2 3 4 5 6 7 8 9 10 11 12 13 14 15 16 17 18 19 20 21 22 23 24 25 26 27 28 29 30 31 32 33 34 35 36 37 38 39 40 41 42 43 44 45 46 47 48 49 50

000
ASUS43 KJKL 221310
RWRJKL

EAST KENTUCKY HOURLY WEATHER ROUNDUP
NATIONAL WEATHER SERVICE JACKSON KY
900 AM EDT THU JUN 22 2017

NOTE: "FAIR" INDICATES FEW OR NO CLOUDS BELOW 12,000 FEET WITH
NO SIGNIFICANT WEATHER AND/OR OBSTRUCTIONS TO VISIBILITY.

* THESE REPORTS ARE NOT UNDER NWS QUALITY CONTROL AND MAY NOT
  REPORT WEATHER SUCH AS PRECIPITATION AND FOG.

KYZ079-080-083-085-087-088-110-112-115-119-120-221400
...EASTERN KENTUCKY...

CITY           SKY/WX    TMP DP  RH WIND       PRES   REMARKS
JACKSON        CLOUDY    72  67  84 CALM      30.10R
LONDON         CLOUDY    71  66  84 S5        30.10R
SOMERSET*      CLOUDY    70  70 100 CALM      30.10R
MONTICELLO*    CLOUDY    72  68  87 NE9       30.11R
WILLIAMSBURG*  CLOUDY    70  70 100 SE7       30.11R
MIDDLESBORO*   CLOUDY    70  70  99 CALM      30.13R
HARLAN APT*    CLOUDY    68  63  83 CALM      30.14R
PIKE CO APT*     N/A     70  68  93 SE3       30.12R
BIG SANDY APT* CLOUDY    73  67  80 S5        30.11R
MOREHEAD APT*  CLOUDY    73  66  78 S6        30.09R HAZE
$$

KYZ035-036-041-042-044-050-067-078-099-221400
...CENTRAL KENTUCKY...

CITY           SKY/WX    TMP DP  RH WIND       PRES   REMARKS
MT STERLING*   CLOUDY    73  68  83 SW7       30.08S
FLEMING/MASON* CLOUDY    74  68  83 SW8       30.07R
DANVILLE*      CLOUDY    72  68  88 SW6       30.09R
LEXINGTON      CLOUDY    75  67  76 S8        30.06S
FRANKFORT      PTSUNNY   75  67  76 S8        30.04S
LOUISVILLE     CLOUDY    78  69  73 S10       30.01S
LEBANON*       PTSUNNY   73  68  83 S8        30.06R
GLASGOW*       CLOUDY    74  66  77 SE3       30.04R
BOWLING GREEN  CLOUDY    75  70  84 SE6       30.02R
$$

KYZ091>093-OHZ055-061-077-WVZ005-015-034-035-042-221400
...SOUTHERN OHIO/WEST VIRGINIA...

CITY           SKY/WX    TMP DP  RH WIND       PRES   REMARKS
COVINGTON      PTSUNNY   75  69  81 SW9       30.02S
COLUMBUS       CLOUDY    77  69  76 SW9       30.00R
DAYTON         CLOUDY    76  69  79 SW8       30.02R
WILMINGTON     MOSUNNY   75  70  84 SW7       30.02R
HUNTINGTON     PTSUNNY   74  66  76 S7        30.06S
CHARLESTON     CLOUDY    73  65  75 CALM      30.07F
PINEVILLE*     CLOUDY    69  65  86 MISG      30.20S
BECKLEY        CLOUDY    69  63  81 SW6       30.17S
BLUEFIELD      MOSUNNY   67  62  84 W6        30.20R
LOGAN CO APT*    N/A     70  66  88 CALM      30.12S
$$

VAZ002-007-008-TNZ017-027-036-066-071-221400
...SOUTHWEST VIRGINIA/EAST TENNESSEE...

CITY           SKY/WX    TMP DP  RH WIND       PRES   REMARKS
WISE*          CLOUDY    70  68  94 CALM      30.20S
JONESVILLE*      N/A     72  66  83 CALM      30.16R
ABINGDON*      CLOUDY    70  66  86 CALM      30.17S
BRISTOL        CLOUDY    70  65  84 CALM      30.15R
MORRISTOWN*    CLOUDY    70  68  94 SE3       30.13R
SEVIERVILLE*   PTSUNNY   68  66  94 CALM      30.12R
KNOXVILLE      LGT RAIN  72  68  87 VRB3      30.11R
LAFOLLETTE*    CLOUDY    72  70  94 CALM      30.16R
OAK RIDGE      LGT RAIN  73  68  84 CALM      30.13R
CROSSVILLE     LGT RAIN  67  65  93 VRB6      30.14R
NASHVILLE      LGT RAIN  72  69  90 S12       30.03S FOG
$$

...KEY TO REMARKS...
VSB - VISIBILITY IN MILES
WCI - WIND CHILL INDEX
HX  - HEAT INDEX

$$



USA.gov is the U.S. government's official web portal to all federal, state and local government web resources and services.